Regional Weather Roundup
Issued by NWS

Home | Current Version | Previous Version | Graphics & Text | Print | Product List | Glossary On
Versions: 1 2 3 4 5 6 7 8 9 10 11 12 13 14 15 16 17 18 19 20 21 22 23 24 25 26 27 28
000
ASUS45 KPSR 180210
RWRAZ

ARIZONA HOURLY REGIONAL WEATHER ROUNDUP
NATIONAL WEATHER SERVICE PHOENIX AZ
700 PM MST TUE JAN 17 2017

NOTE: FAIR INDICATES FEW OR NO CLOUDS BELOW 12,000 FEET WITH NO
SIGNIFICANT WEATHER AND/OR OBSTRUCTIONS TO VISIBILITY.

AZZ001>003-036-180300-
NORTHWEST ARIZONA

CITY           SKY/WX    TMP DP  RH WIND       PRES   REMARKS
BULLHEAD CITY  CLEAR     57  23  26 N15       30.12R
KINGMAN        CLEAR     41  22  46 E5        30.13R
$$

AZZ004>008-015-016-018-180300-
NORTH CENTRAL ARIZONA

CITY           SKY/WX    TMP DP  RH WIND       PRES   REMARKS
GRAND CANYON   CLEAR     31  25  78 CALM      30.15R
WILLIAMS       CLEAR     34  28  80 W5        30.13R WCI  30
PRESCOTT       CLEAR     42  31  64 S5        30.11R
FLAGSTAFF      CLEAR     30  27  88 CALM      30.14R
PAYSON         PTCLDY    43  34  70 NE7       30.14R
PAGE           CLEAR     41  25  53 CALM      30.15R
$$

AZZ009>014-017-180300-
NORTHEAST ARIZONA

CITY           SKY/WX    TMP DP  RH WIND       PRES   REMARKS
WINSLOW        CLEAR     36  32  85 SW3       30.14R
SAINT JOHNS    CLOUDY    41  35  79 W6        30.11R
SHOW LOW       CLOUDY    36  32  87 S5        30.14R WCI  32
$$

AZZ023-180300-
GREATER PHOENIX AREA

CITY           SKY/WX    TMP DP  RH WIND       PRES   REMARKS
PHOENIX        PTCLDY    57  43  59 SW6       30.04R
BUCKEYE        CLEAR     54  45  71 CALM      30.06R
GLENDALE       PTCLDY    57  45  62 CALM      30.05S
LUKE AFB       CLEAR     56  45  67 S6        30.04R
DEER VALLEY    CLEAR     57  41  55 W3        30.05R
SCOTTSDALE     CLEAR     58  40  51 CALM      30.06R
MESA-FALCON    PTCLDY   N/A N/A N/A SW6       30.02R
MESA-GATEWAY   PTCLDY    55  43  62 W5        30.06R
CHANDLER       CLEAR     57  43  58 VRB6      30.05R
$$

AZZ027-028-180300-
SOUTHWEST MARICOPA COUNTY AND PINAL COUNTY

CITY           SKY/WX    TMP DP  RH WIND       PRES   REMARKS
CASA GRANDE    CLEAR     54  41  61 W6        30.07R
$$

AZZ503-504-507>509-180300-
SOUTHEAST ARIZONA

CITY           SKY/WX    TMP DP  RH WIND       PRES   REMARKS
TUCSON         PTCLDY    55  43  63 NW6       30.08R
DAVIS-MONTHAN  MOCLDY    53  44  72 W9        30.06R
RYAN FIELD     MOCLDY    63  45  51 W6        30.09R
NOGALES        PTCLDY    48  37  65 CALM      30.08R
SIERRA VISTA   CLOUDY    46  33  61 NW9       30.10R
DOUGLAS        LGT RAIN  51  35  54 VRB7      30.09R
SAFFORD        MOCLDY    49  43  80 NW6       30.06R
$$

AZZ020-021-025-026-031-180300-
SOUTHWEST ARIZONA

CITY           SKY/WX    TMP DP  RH WIND       PRES   REMARKS
YUMA           CLEAR     62  27  26 N7        30.08R
$$

CAZ031-033-041-043-047-048-061-180300-
SOUTHERN CALIFORNIA

CITY           SKY/WX    TMP DP  RH WIND       PRES   REMARKS
DOWNTOWN L.A.  MOCLDY    59  50  72 CALM      30.11R
L.A. AIRPORT   MOCLDY    57  53  86 W9        30.12R
SAN DIEGO      PTCLDY    59  47  64 NE5       30.13R
BURBANK        MOCLDY    58  37  45 S3        30.11R
ONTARIO        PTCLDY    59  32  36 W3        30.10R
RIVERSIDE      PTCLDY    58  44  60 W3        30.10R
PALM SPRINGS   CLEAR     61  35  37 CALM      30.11R
EL CENTRO NAS  PTCLDY    60  32  34 W5        30.11R
IMPERIAL       CLEAR     58  35  42 W5        30.08R
BLYTHE         CLEAR     59  28  30 N7        30.09R
NEEDLES        CLEAR     57  22  25 NW7       30.12R
$$

NVZ020-UTZ003-180300-
SOUTHERN NEVADA-UTAH

CITY           SKY/WX    TMP DP  RH WIND       PRES   REMARKS
LAS VEGAS      CLEAR     52  16  24 SW5       30.13R
SALT LAKE CITY PTCLDY    26  20  77 NW5       30.23R WCI  20
$$

NMZ009-TXZ055-180300-
NEW MEXICO-WEST TEXAS

CITY           SKY/WX    TMP DP  RH WIND       PRES   REMARKS
ALBUQUERQUE    MOCLDY    44  33  65 SW5       30.10R
EL PASO        PTCLDY    45  39  79 N6        30.11R
$$


........................KEY........................
SKY/WX - SKY CONDITION/WEATHER
TMP    - TEMPERATURE IN FAHRENHEIT
DP     - DEW POINT IN FAHRENHEIT
RH     - RELATIVE HUMIDITY IN PERCENT
WIND   - DIRECTION AND SPEED IN MILES PER HOUR (MPH)
VRB    - VARIABLE WIND DIRECTION
PRES   - MEAN SEA LEVEL PRESSURE IN INCHES OF MERCURY
         F - FALLING PRESSURE   R - RISING PRESSURE
         S - STEADY PRESSURE
VSB    - VISIBILITY IN MILES
HX     - HEAT INDEX IN FAHRENHEIT
WCI    - WIND CHILL INDEX IN FAHRENHEIT
TC     - TEMPERATURE IN CELSIUS WHICH IS ALSO KNOWN AS
         TEMPERATURE IN CENTIGRADE
AFB    - AIR FORCE BASE
         LUKE AFB IS LUKE AIR FORCE BASE
         DAVIS-MONTHAN IS DAVIS-MONTHAN AIR FORCE BASE
NAS    - NAVAL AIR STATION
         EL CENTRO NAS IS EL CENTRO NAVAL AIR STATION
N/A    - NOT AVAILABLE





USA.gov is the U.S. government's official web portal to all federal, state and local government web resources and services.